Time,TemperatureF,DewpointF,PressureIn,WindDirection,WindDirectionDegrees,WindSpeedMPH,WindSpeedGustMPH,Humidity,HourlyPrecipIn,Conditions,Clouds,dailyrainin,SoftwareType,DateUTC
2013-11-25 00:01:00,14.7,13.1,30.13,SE,128,5.0,11.0,93,0.00,,,0.00,meteohub,2013-11-25 07:01:00,
2013-11-25 00:06:00,14.7,13.1,30.12,SW,219,4.0,11.0,93,0.00,,,0.00,meteohub,2013-11-25 07:06:00,
2013-11-25 00:12:00,14.5,12.9,30.13,NE,49,3.0,10.0,93,0.00,,,0.00,meteohub,2013-11-25 07:12:00,
2013-11-25 00:17:00,14.5,12.9,30.13,SSW,207,0.0,10.0,93,0.00,,,0.00,meteohub,2013-11-25 07:17:00,
2013-11-25 00:22:00,14.5,12.9,30.13,SE,139,5.0,12.0,93,0.00,,,0.00,meteohub,2013-11-25 07:22:00,
2013-11-25 00:27:00,14.5,12.9,30.13,South,190,2.0,12.0,93,0.00,,,0.00,meteohub,2013-11-25 07:27:00,
2013-11-25 00:32:00,14.5,12.9,30.13,SSW,208,0.0,12.0,93,0.00,,,0.00,meteohub,2013-11-25 07:32:00,
2013-11-25 00:37:00,14.5,12.9,30.13,ESE,122,4.0,10.0,93,0.00,,,0.00,meteohub,2013-11-25 07:37:00,
2013-11-25 00:42:00,14.5,12.9,30.12,ESE,113,3.0,10.0,93,0.00,,,0.00,meteohub,2013-11-25 07:42:00,
2013-11-25 00:47:00,14.4,12.7,30.12,SE,137,1.0,9.0,93,0.00,,,0.00,meteohub,2013-11-25 07:47:00,
2013-11-25 00:52:00,14.4,12.7,30.12,SE,146,5.0,9.0,93,0.00,,,0.00,meteohub,2013-11-25 07:52:00,
2013-11-25 00:57:00,14.4,12.7,30.12,SE,146,4.0,9.0,93,0.00,,,0.00,meteohub,2013-11-25 07:57:00,
2013-11-25 01:02:00,14.4,12.4,30.12,East,90,3.0,9.0,92,0.00,,,0.00,meteohub,2013-11-25 08:02:00,
2013-11-25 01:07:00,14.2,12.2,30.12,SW,231,4.0,11.0,92,0.00,,,0.00,meteohub,2013-11-25 08:07:00,
2013-11-25 01:12:00,14.2,12.2,30.12,NNE,21,0.0,11.0,92,0.00,,,0.00,meteohub,2013-11-25 08:12:00,
2013-11-25 01:17:00,14.0,12.0,30.13,West,274,1.0,11.0,92,0.00,,,0.00,meteohub,2013-11-25 08:17:00,
2013-11-25 01:22:00,13.8,12.0,30.13,SSE,152,0.0,10.0,92,0.00,,,0.00,meteohub,2013-11-25 08:22:00,
2013-11-25 01:27:00,13.8,12.0,30.13,West,271,0.0,10.0,92,0.00,,,0.00,meteohub,2013-11-25 08:27:00,
2013-11-25 01:32:00,13.8,12.0,30.13,SW,214,1.0,8.0,92,0.00,,,0.00,meteohub,2013-11-25 08:32:00,
2013-11-25 01:37:00,13.8,12.0,30.13,South,190,2.0,8.0,92,0.00,,,0.00,meteohub,2013-11-25 08:37:00,
2013-11-25 01:42:00,13.8,12.0,30.13,SE,140,1.0,8.0,92,0.00,,,0.00,meteohub,2013-11-25 08:42:00,
2013-11-25 01:47:00,13.8,12.0,30.12,ESE,105,3.0,10.0,92,0.00,,,0.00,meteohub,2013-11-25 08:47:00,
2013-11-25 01:52:00,13.6,11.8,30.12,SSW,203,3.0,11.0,92,0.00,,,0.00,meteohub,2013-11-25 08:52:00,
2013-11-25 01:57:00,13.6,11.8,30.12,SW,222,2.0,11.0,92,0.00,,,0.00,meteohub,2013-11-25 08:57:00,
2013-11-25 02:02:00,13.6,11.8,30.13,ESE,106,3.0,11.0,92,0.00,,,0.00,meteohub,2013-11-25 09:02:00,
2013-11-25 02:07:00,13.6,11.8,30.13,East,81,4.0,10.0,92,0.00,,,0.00,meteohub,2013-11-25 09:07:00,
2013-11-25 02:12:00,13.6,11.8,30.12,SW,215,2.0,10.0,92,0.00,,,0.00,meteohub,2013-11-25 09:12:00,
2013-11-25 02:17:00,13.6,11.8,30.13,SE,145,9.0,9.0,92,0.00,,,0.00,meteohub,2013-11-25 09:17:00,
2013-11-25 02:22:00,13.6,11.8,30.13,ENE,71,6.0,9.0,92,0.00,,,0.00,meteohub,2013-11-25 09:22:00,
2013-11-25 02:27:00,13.6,11.8,30.13,SSW,211,7.0,9.0,92,0.00,,,0.00,meteohub,2013-11-25 09:27:00,
2013-11-25 02:32:00,13.6,11.8,30.13,West,275,0.0,9.0,92,0.00,,,0.00,meteohub,2013-11-25 09:32:00,
2013-11-25 02:37:00,13.6,11.8,30.13,SW,218,4.0,9.0,92,0.00,,,0.00,meteohub,2013-11-25 09:37:00,
2013-11-25 02:42:00,13.6,11.8,30.13,SW,222,5.0,12.0,92,0.00,,,0.00,meteohub,2013-11-25 09:42:00,
2013-11-25 02:47:00,13.6,11.8,30.13,SE,139,5.0,12.0,92,0.00,,,0.00,meteohub,2013-11-25 09:47:00,
2013-11-25 02:52:00,13.6,11.8,30.14,SW,221,8.0,12.0,92,0.00,,,0.00,meteohub,2013-11-25 09:52:00,
2013-11-25 02:57:00,13.6,11.8,30.14,WSW,248,7.0,12.0,92,0.00,,,0.00,meteohub,2013-11-25 09:57:00,
2013-11-25 03:02:00,13.6,11.8,30.14,South,181,5.0,15.0,92,0.00,,,0.00,meteohub,2013-11-25 10:02:00,
2013-11-25 03:07:00,13.8,12.0,30.14,SE,128,7.0,15.0,92,0.00,,,0.00,meteohub,2013-11-25 10:07:00,
2013-11-25 03:12:00,13.8,12.0,30.13,SE,140,6.0,15.0,92,0.00,,,0.00,meteohub,2013-11-25 10:12:00,
2013-11-25 03:17:00,13.6,11.8,30.13,ESE,109,7.0,14.0,92,0.00,,,0.00,meteohub,2013-11-25 10:17:00,
2013-11-25 03:22:00,13.6,11.8,30.13,West,261,1.0,13.0,92,0.00,,,0.00,meteohub,2013-11-25 10:22:00,
2013-11-25 03:27:00,13.6,11.8,30.14,SSE,153,0.0,12.0,92,0.00,,,0.00,meteohub,2013-11-25 10:27:00,
2013-11-25 03:32:00,13.6,11.8,30.14,West,270,0.0,12.0,92,0.00,,,0.00,meteohub,2013-11-25 10:32:00,
2013-11-25 03:37:00,13.6,11.8,30.15,WSW,253,0.0,12.0,92,0.00,,,0.00,meteohub,2013-11-25 10:37:00,
2013-11-25 03:42:00,13.6,11.8,30.15,South,190,0.0,11.0,92,0.00,,,0.00,meteohub,2013-11-25 10:42:00,
2013-11-25 03:47:00,13.5,11.7,30.14,SSW,198,5.0,6.0,92,0.00,,,0.00,meteohub,2013-11-25 10:47:00,
2013-11-25 03:52:00,13.6,11.8,30.14,SW,217,0.0,9.0,92,0.00,,,0.00,meteohub,2013-11-25 10:52:00,
2013-11-25 03:57:00,13.5,11.7,30.14,SSE,150,5.0,9.0,92,0.00,,,0.00,meteohub,2013-11-25 10:57:00,
2013-11-25 04:02:00,13.5,11.7,30.15,SSW,198,0.0,9.0,92,0.00,,,0.00,meteohub,2013-11-25 11:02:00,
2013-11-25 04:07:00,13.5,11.7,30.15,SSE,163,4.0,11.0,92,0.00,,,0.00,meteohub,2013-11-25 11:07:00,
2013-11-25 04:12:00,13.5,11.7,30.14,SSE,159,4.0,11.0,92,0.00,,,0.00,meteohub,2013-11-25 11:12:00,
2013-11-25 04:17:00,13.5,11.7,30.15,SE,129,7.0,11.0,92,0.00,,,0.00,meteohub,2013-11-25 11:17:00,
2013-11-25 04:22:00,13.3,11.5,30.15,SSE,153,6.0,10.0,92,0.00,,,0.00,meteohub,2013-11-25 11:22:00,
2013-11-25 04:27:00,13.3,11.5,30.16,SSE,155,2.0,11.0,92,0.00,,,0.00,meteohub,2013-11-25 11:27:00,
2013-11-25 04:32:00,13.1,11.3,30.16,SSE,147,5.0,11.0,92,0.00,,,0.00,meteohub,2013-11-25 11:32:00,
2013-11-25 04:37:00,13.1,11.3,30.16,SSE,150,6.0,11.0,92,0.00,,,0.00,meteohub,2013-11-25 11:37:00,
2013-11-25 04:42:00,12.9,11.1,30.16,SSE,155,7.0,10.0,92,0.00,,,0.00,meteohub,2013-11-25 11:42:00,
2013-11-25 04:47:00,12.9,11.1,30.16,South,174,4.0,9.0,92,0.00,,,0.00,meteohub,2013-11-25 11:47:00,
2013-11-25 04:52:00,12.7,10.9,30.17,SSE,155,2.0,10.0,92,0.00,,,0.00,meteohub,2013-11-25 11:52:00,
2013-11-25 04:57:00,12.7,10.9,30.17,ESE,109,4.0,10.0,92,0.00,,,0.00,meteohub,2013-11-25 11:57:00,
2013-11-25 05:02:00,12.6,10.8,30.18,SSE,165,5.0,10.0,92,0.00,,,0.00,meteohub,2013-11-25 12:02:00,
2013-11-25 05:07:00,12.6,10.8,30.18,SW,229,4.0,7.0,92,0.00,,,0.00,meteohub,2013-11-25 12:07:00,
2013-11-25 05:12:00,12.6,10.9,30.19,SSE,153,4.0,8.0,93,0.00,,,0.00,meteohub,2013-11-25 12:12:00,
2013-11-25 05:17:00,12.6,10.8,30.19,SE,132,1.0,9.0,92,0.00,,,0.00,meteohub,2013-11-25 12:17:00,
2013-11-25 05:22:00,12.6,10.9,30.19,SE,134,2.0,9.0,93,0.00,,,0.00,meteohub,2013-11-25 12:22:00,
2013-11-25 05:27:00,12.6,10.9,30.19,NE,56,1.0,9.0,93,0.00,,,0.00,meteohub,2013-11-25 12:27:00,
2013-11-25 05:32:00,12.6,10.9,30.20,SSE,155,3.0,9.0,93,0.00,,,0.00,meteohub,2013-11-25 12:32:00,
2013-11-25 05:37:00,12.6,10.9,30.21,ESE,113,6.0,10.0,93,0.00,,,0.00,meteohub,2013-11-25 12:37:00,
2013-11-25 05:42:00,12.6,10.9,30.22,SE,133,2.0,10.0,93,0.00,,,0.00,meteohub,2013-11-25 12:42:00,
2013-11-25 05:47:00,12.7,11.1,30.22,SSE,155,5.0,10.0,93,0.00,,,0.00,meteohub,2013-11-25 12:47:00,
2013-11-25 05:52:00,12.7,11.1,30.22,South,191,0.0,7.0,93,0.00,,,0.00,meteohub,2013-11-25 12:52:00,
2013-11-25 05:57:00,12.7,11.1,30.22,SE,135,1.0,7.0,93,0.00,,,0.00,meteohub,2013-11-25 12:57:00,
2013-11-25 06:02:00,12.7,11.1,30.22,South,190,1.0,7.0,93,0.00,,,0.00,meteohub,2013-11-25 13:02:00,
2013-11-25 06:07:00,12.7,11.1,30.22,SW,225,1.0,7.0,93,0.00,,,0.00,meteohub,2013-11-25 13:07:00,
2013-11-25 06:12:00,12.7,11.1,30.22,South,188,0.0,4.0,93,0.00,,,0.00,meteohub,2013-11-25 13:12:00,
2013-11-25 06:17:00,12.7,11.1,30.23,SSE,150,0.0,4.0,93,0.00,,,0.00,meteohub,2013-11-25 13:17:00,
2013-11-25 06:22:00,12.9,11.3,30.23,SW,221,0.0,3.0,93,0.00,,,0.00,meteohub,2013-11-25 13:22:00,
2013-11-25 06:27:00,12.9,11.3,30.22,SE,142,0.0,3.0,93,0.00,,,0.00,meteohub,2013-11-25 13:27:00,
2013-11-25 06:32:00,12.7,10.9,30.23,West,266,0.0,3.0,92,0.00,,,0.00,meteohub,2013-11-25 13:32:00,
2013-11-25 06:37:00,12.9,11.3,30.23,SSW,204,0.0,3.0,93,0.00,,,0.00,meteohub,2013-11-25 13:37:00,
2013-11-25 06:42:00,12.7,10.9,30.23,SW,236,0.0,3.0,92,0.00,,,0.00,meteohub,2013-11-25 13:42:00,
2013-11-25 06:47:00,13.8,12.7,30.23,WNW,302,1.0,5.0,95,0.00,,,0.00,meteohub,2013-11-25 13:47:00,
2013-11-25 06:52:00,15.1,13.8,30.23,WNW,299,3.0,6.0,95,0.00,,,0.00,meteohub,2013-11-25 13:52:00,
2013-11-25 06:57:00,15.6,14.2,30.23,NW,317,4.0,6.0,94,0.00,,,0.00,meteohub,2013-11-25 13:57:00,
2013-11-25 07:02:00,16.0,14.5,30.23,NW,306,6.0,6.0,94,0.00,,,0.00,meteohub,2013-11-25 14:02:00,
2013-11-25 07:07:00,16.3,14.9,30.23,WNW,293,3.0,7.0,94,0.00,,,0.00,meteohub,2013-11-25 14:07:00,
2013-11-25 07:12:00,16.5,14.9,30.24,WNW,302,6.0,10.0,93,0.00,,,0.00,meteohub,2013-11-25 14:12:00,
2013-11-25 07:17:00,16.9,15.3,30.24,North,349,4.0,12.0,93,0.00,,,0.00,meteohub,2013-11-25 14:17:00,
2013-11-25 07:22:00,17.2,15.3,30.24,NW,319,4.0,12.0,92,0.00,,,0.00,meteohub,2013-11-25 14:22:00,
2013-11-25 07:27:00,17.4,15.4,30.24,NW,304,3.0,12.0,92,0.00,,,0.00,meteohub,2013-11-25 14:27:00,
2013-11-25 07:32:00,17.4,15.3,30.24,WNW,299,3.0,10.0,91,0.00,,,0.00,meteohub,2013-11-25 14:32:00,
2013-11-25 07:37:00,17.8,15.6,30.25,NW,309,4.0,10.0,91,0.00,,,0.00,meteohub,2013-11-25 14:37:00,
2013-11-25 07:42:00,18.1,15.4,30.25,NW,322,4.0,12.0,89,0.00,,,0.00,meteohub,2013-11-25 14:42:00,
2013-11-25 07:47:00,18.1,15.4,30.25,NW,307,5.0,15.0,89,0.00,,,0.00,meteohub,2013-11-25 14:47:00,
2013-11-25 07:52:00,18.1,15.4,30.25,NNW,340,9.0,15.0,89,0.00,,,0.00,meteohub,2013-11-25 14:52:00,
2013-11-25 07:57:00,18.3,15.4,30.25,NW,318,6.0,14.0,88,0.00,,,0.00,meteohub,2013-11-25 14:57:00,
2013-11-25 08:02:00,18.7,15.8,30.25,WNW,300,7.0,14.0,88,0.00,,,0.00,meteohub,2013-11-25 15:02:00,
2013-11-25 08:07:00,19.0,15.8,30.26,NW,312,8.0,14.0,87,0.00,,,0.00,meteohub,2013-11-25 15:07:00,
2013-11-25 08:12:00,19.2,16.0,30.26,NNW,327,10.0,15.0,87,0.00,,,0.00,meteohub,2013-11-25 15:12:00,
2013-11-25 08:17:00,19.4,16.2,30.27,North,350,11.0,16.0,87,0.00,,,0.00,meteohub,2013-11-25 15:17:00,
2013-11-25 08:22:00,19.6,16.3,30.27,NW,322,8.0,16.0,87,0.00,,,0.00,meteohub,2013-11-25 15:22:00,
2013-11-25 08:27:00,19.6,16.3,30.27,NNW,334,5.0,17.0,87,0.00,,,0.00,meteohub,2013-11-25 15:27:00,
2013-11-25 08:32:00,19.6,16.5,30.28,NW,323,6.0,17.0,88,0.00,,,0.00,meteohub,2013-11-25 15:32:00,
2013-11-25 08:37:00,19.6,16.3,30.28,NW,311,3.0,18.0,87,0.00,,,0.00,meteohub,2013-11-25 15:37:00,
2013-11-25 08:42:00,19.4,16.5,30.28,NW,314,3.0,18.0,88,0.00,,,0.00,meteohub,2013-11-25 15:42:00,
2013-11-25 08:47:00,19.6,16.3,30.29,NW,305,5.0,18.0,87,0.00,,,0.00,meteohub,2013-11-25 15:47:00,
2013-11-25 08:52:00,19.9,16.5,30.28,WNW,302,7.0,15.0,86,0.00,,,0.00,meteohub,2013-11-25 15:52:00,
2013-11-25 08:57:00,20.5,16.7,30.29,NW,311,5.0,15.0,85,0.00,,,0.00,meteohub,2013-11-25 15:57:00,
2013-11-25 09:02:00,20.5,16.7,30.29,WNW,294,7.0,13.0,85,0.00,,,0.00,meteohub,2013-11-25 16:02:00,
2013-11-25 09:07:00,21.0,16.7,30.29,WNW,299,4.0,14.0,83,0.00,,,0.00,meteohub,2013-11-25 16:07:00,
2013-11-25 09:12:00,21.4,17.1,30.28,WNW,302,3.0,15.0,83,0.00,,,0.00,meteohub,2013-11-25 16:12:00,
2013-11-25 09:17:00,21.6,16.9,30.29,NW,326,6.0,18.0,82,0.00,,,0.00,meteohub,2013-11-25 16:17:00,
2013-11-25 09:22:00,21.7,17.1,30.28,NW,315,11.0,18.0,82,0.00,,,0.00,meteohub,2013-11-25 16:22:00,
2013-11-25 09:27:00,22.3,17.4,30.29,NW,306,7.0,16.0,81,0.00,,,0.00,meteohub,2013-11-25 16:27:00,
2013-11-25 09:32:00,22.5,17.6,30.28,NNW,329,7.0,16.0,81,0.00,,,0.00,meteohub,2013-11-25 16:32:00,
2013-11-25 09:37:00,22.8,18.0,30.28,North,6,3.0,24.0,81,0.00,,,0.00,meteohub,2013-11-25 16:37:00,
2013-11-25 09:42:00,23.0,18.3,30.27,WNW,292,10.0,24.0,82,0.00,,,0.00,meteohub,2013-11-25 16:42:00,
2013-11-25 09:47:00,23.4,17.8,30.27,NW,322,11.0,24.0,79,0.00,,,0.00,meteohub,2013-11-25 16:47:00,
2013-11-25 09:52:00,23.7,18.1,30.27,NW,323,9.0,24.0,79,0.00,,,0.00,meteohub,2013-11-25 16:52:00,
2013-11-25 09:57:00,23.9,18.7,30.27,NNW,331,10.0,24.0,80,0.00,,,0.00,meteohub,2013-11-25 16:57:00,
2013-11-25 10:02:00,24.1,19.0,30.27,North,357,16.0,24.0,81,0.00,,,0.00,meteohub,2013-11-25 17:02:00,
2013-11-25 10:07:00,24.3,19.0,30.27,NW,324,11.0,24.0,80,0.00,,,0.00,meteohub,2013-11-25 17:07:00,
2013-11-25 10:12:00,24.4,18.9,30.27,NW,316,10.0,26.0,79,0.00,,,0.00,meteohub,2013-11-25 17:12:00,
2013-11-25 10:17:00,24.6,18.7,30.27,NNW,330,10.0,32.0,78,0.00,,,0.00,meteohub,2013-11-25 17:17:00,
2013-11-25 10:22:00,25.0,19.0,30.28,NNW,336,9.0,32.0,78,0.00,,,0.00,meteohub,2013-11-25 17:22:00,
2013-11-25 10:27:00,25.3,18.9,30.28,NNW,328,9.0,32.0,76,0.00,,,0.00,meteohub,2013-11-25 17:27:00,
2013-11-25 10:32:00,25.5,19.0,30.27,NNW,332,10.0,30.0,76,0.00,,,0.00,meteohub,2013-11-25 17:32:00,
2013-11-25 10:37:00,25.5,19.6,30.27,North,358,19.0,30.0,78,0.00,,,0.00,meteohub,2013-11-25 17:37:00,
2013-11-25 10:42:00,25.7,19.6,30.27,WNW,299,12.0,30.0,77,0.00,,,0.00,meteohub,2013-11-25 17:42:00,
2013-11-25 10:47:00,25.9,19.8,30.27,NNW,332,14.0,30.0,77,0.00,,,0.00,meteohub,2013-11-25 17:47:00,
2013-11-25 10:52:00,25.9,19.0,30.27,NW,319,16.0,29.0,75,0.00,,,0.00,meteohub,2013-11-25 17:52:00,
2013-11-25 10:57:00,26.2,19.0,30.26,North,350,18.0,29.0,74,0.00,,,0.00,meteohub,2013-11-25 17:57:00,
2013-11-25 11:02:00,26.2,19.0,30.27,NNW,327,21.0,29.0,74,0.00,,,0.00,meteohub,2013-11-25 18:02:00,
2013-11-25 11:07:00,26.4,19.6,30.27,North,356,15.0,32.0,75,0.00,,,0.00,meteohub,2013-11-25 18:07:00,
2013-11-25 11:12:00,26.6,19.8,30.27,NNW,336,14.0,32.0,75,0.00,,,0.00,meteohub,2013-11-25 18:12:00,
2013-11-25 11:17:00,26.6,20.1,30.27,NNW,329,16.0,32.0,76,0.00,,,0.00,meteohub,2013-11-25 18:17:00,
2013-11-25 11:22:00,26.6,20.1,30.27,North,6,14.0,24.0,76,0.00,,,0.00,meteohub,2013-11-25 18:22:00,
2013-11-25 11:27:00,26.8,19.6,30.27,NNW,342,13.0,27.0,74,0.00,,,0.00,meteohub,2013-11-25 18:27:00,
2013-11-25 11:32:00,26.8,19.9,30.27,NW,309,8.0,30.0,75,0.00,,,0.00,meteohub,2013-11-25 18:32:00,
2013-11-25 11:37:00,26.8,20.3,30.27,North,354,17.0,30.0,76,0.00,,,0.00,meteohub,2013-11-25 18:37:00,
2013-11-25 11:42:00,27.0,20.5,30.27,NNW,342,14.0,30.0,76,0.00,,,0.00,meteohub,2013-11-25 18:42:00,
2013-11-25 11:47:00,27.0,20.5,30.27,NNW,335,9.0,25.0,76,0.00,,,0.00,meteohub,2013-11-25 18:47:00,
2013-11-25 11:52:00,27.1,20.3,30.28,NNW,341,14.0,25.0,75,0.00,,,0.00,meteohub,2013-11-25 18:52:00,
2013-11-25 11:57:00,27.0,20.5,30.28,NW,312,21.0,25.0,76,0.00,,,0.00,meteohub,2013-11-25 18:57:00,
2013-11-25 12:02:00,27.3,20.5,30.27,NNW,340,13.0,24.0,75,0.00,,,0.00,meteohub,2013-11-25 19:02:00,
2013-11-25 12:07:00,27.1,19.9,30.27,NW,313,15.0,24.0,74,0.00,,,0.00,meteohub,2013-11-25 19:07:00,
2013-11-25 12:12:00,27.3,20.1,30.27,NNW,341,21.0,27.0,74,0.00,,,0.00,meteohub,2013-11-25 19:12:00,
2013-11-25 12:17:00,27.3,20.1,30.27,NW,326,14.0,29.0,74,0.00,,,0.00,meteohub,2013-11-25 19:17:00,
2013-11-25 12:22:00,27.1,19.4,30.27,NNW,334,8.0,29.0,72,0.00,,,0.00,meteohub,2013-11-25 19:22:00,
2013-11-25 12:27:00,27.0,20.1,30.27,WNW,303,9.0,30.0,75,0.00,,,0.00,meteohub,2013-11-25 19:27:00,
2013-11-25 12:32:00,27.0,19.8,30.27,North,351,12.0,30.0,74,0.00,,,0.00,meteohub,2013-11-25 19:32:00,
2013-11-25 12:37:00,26.8,19.9,30.27,WNW,295,6.0,32.0,75,0.00,,,0.00,meteohub,2013-11-25 19:37:00,
2013-11-25 12:42:00,26.4,19.6,30.28,NNW,343,6.0,32.0,75,0.00,,,0.00,meteohub,2013-11-25 19:42:00,
2013-11-25 12:47:00,26.4,18.9,30.27,NNW,328,21.0,27.0,73,0.00,,,0.00,meteohub,2013-11-25 19:47:00,
2013-11-25 12:52:00,27.0,19.4,30.27,SW,228,6.0,25.0,73,0.00,,,0.00,meteohub,2013-11-25 19:52:00,
2013-11-25 12:57:00,26.8,19.0,30.27,WNW,290,10.0,27.0,72,0.00,,,0.00,meteohub,2013-11-25 19:57:00,
2013-11-25 13:02:00,26.6,18.5,30.27,NNW,337,13.0,27.0,71,0.00,,,0.00,meteohub,2013-11-25 20:02:00,
2013-11-25 13:07:00,26.6,18.5,30.27,NNW,337,20.0,29.0,71,0.00,,,0.00,meteohub,2013-11-25 20:07:00,
2013-11-25 13:12:00,26.4,18.3,30.27,WNW,297,14.0,29.0,71,0.00,,,0.00,meteohub,2013-11-25 20:12:00,
2013-11-25 13:17:00,26.2,18.5,30.28,NNE,16,14.0,29.0,72,0.00,,,0.00,meteohub,2013-11-25 20:17:00,
2013-11-25 13:22:00,25.9,18.1,30.28,NNW,335,15.0,29.0,72,0.00,,,0.00,meteohub,2013-11-25 20:22:00,
2013-11-25 13:27:00,25.7,17.6,30.28,WNW,302,9.0,29.0,71,0.00,,,0.00,meteohub,2013-11-25 20:27:00,
2013-11-25 13:32:00,25.3,17.6,30.29,NW,326,10.0,29.0,72,0.00,,,0.00,meteohub,2013-11-25 20:32:00,
2013-11-25 13:37:00,25.3,17.2,30.28,NNW,328,17.0,29.0,71,0.00,,,0.00,meteohub,2013-11-25 20:37:00,
2013-11-25 13:42:00,25.3,16.9,30.28,ENE,78,4.0,25.0,70,0.00,,,0.00,meteohub,2013-11-25 20:42:00,
2013-11-25 13:47:00,25.2,17.1,30.28,North,357,6.0,23.0,71,0.00,,,0.00,meteohub,2013-11-25 20:47:00,
2013-11-25 13:52:00,25.2,17.1,30.29,NNW,334,7.0,28.0,71,0.00,,,0.00,meteohub,2013-11-25 20:52:00,
2013-11-25 13:57:00,25.3,16.9,30.30,WNW,303,6.0,28.0,70,0.00,,,0.00,meteohub,2013-11-25 20:57:00,
2013-11-25 14:02:00,25.3,16.9,30.30,NW,305,9.0,28.0,70,0.00,,,0.00,meteohub,2013-11-25 21:02:00,
2013-11-25 14:07:00,25.3,17.2,30.29,NW,324,7.0,23.0,71,0.00,,,0.00,meteohub,2013-11-25 21:07:00,
2013-11-25 14:12:00,25.3,16.9,30.29,NW,322,9.0,19.0,70,0.00,,,0.00,meteohub,2013-11-25 21:12:00,
2013-11-25 14:17:00,25.7,17.6,30.29,NW,315,10.0,20.0,71,0.00,,,0.00,meteohub,2013-11-25 21:17:00,
2013-11-25 14:22:00,25.9,17.4,30.30,WNW,297,10.0,25.0,70,0.00,,,0.00,meteohub,2013-11-25 21:22:00,
2013-11-25 14:27:00,25.9,18.1,30.29,West,274,6.0,25.0,72,0.00,,,0.00,meteohub,2013-11-25 21:27:00,
2013-11-25 14:32:00,25.7,17.6,30.30,North,358,16.0,23.0,71,0.00,,,0.00,meteohub,2013-11-25 21:32:00,
2013-11-25 14:37:00,25.3,18.0,30.30,NW,312,8.0,26.0,73,0.00,,,0.00,meteohub,2013-11-25 21:37:00,
2013-11-25 14:42:00,25.0,18.0,30.30,North,359,23.0,26.0,74,0.00,,,0.00,meteohub,2013-11-25 21:42:00,
2013-11-25 14:47:00,24.8,17.8,30.31,NW,319,4.0,26.0,74,0.00,,,0.00,meteohub,2013-11-25 21:47:00,
2013-11-25 14:52:00,24.6,17.8,30.31,NW,321,11.0,28.0,75,0.00,,,0.00,meteohub,2013-11-25 21:52:00,
2013-11-25 14:57:00,24.4,18.0,30.32,NW,324,5.0,28.0,76,0.00,,,0.00,meteohub,2013-11-25 21:57:00,
2013-11-25 15:02:00,24.4,18.0,30.33,NW,326,8.0,28.0,76,0.00,,,0.00,meteohub,2013-11-25 22:02:00,
2013-11-25 15:07:00,24.3,18.1,30.33,NNW,327,5.0,28.0,77,0.00,,,0.00,meteohub,2013-11-25 22:07:00,
2013-11-25 15:12:00,24.3,17.8,30.33,WSW,255,11.0,22.0,76,0.00,,,0.00,meteohub,2013-11-25 22:12:00,
2013-11-25 15:17:00,24.4,18.0,30.34,NNW,329,8.0,16.0,76,0.00,,,0.00,meteohub,2013-11-25 22:17:00,
2013-11-25 15:22:00,24.4,18.0,30.35,NW,315,4.0,19.0,76,0.00,,,0.00,meteohub,2013-11-25 22:22:00,
2013-11-25 15:27:00,24.6,18.1,30.35,NW,315,0.0,19.0,76,0.00,,,0.00,meteohub,2013-11-25 22:27:00,
2013-11-25 15:32:00,24.8,18.3,30.35,NNW,327,3.0,17.0,76,0.00,,,0.00,meteohub,2013-11-25 22:32:00,
2013-11-25 15:37:00,25.0,18.5,30.35,NNW,339,12.0,12.0,76,0.00,,,0.00,meteohub,2013-11-25 22:37:00,
2013-11-25 15:42:00,24.6,18.5,30.35,WNW,302,5.0,14.0,77,0.00,,,0.00,meteohub,2013-11-25 22:42:00,
2013-11-25 15:47:00,24.4,18.3,30.35,WNW,299,7.0,14.0,77,0.00,,,0.00,meteohub,2013-11-25 22:47:00,
2013-11-25 15:52:00,24.3,18.1,30.35,NW,326,6.0,14.0,77,0.00,,,0.00,meteohub,2013-11-25 22:52:00,
2013-11-25 15:57:00,24.1,18.5,30.36,NW,310,3.0,14.0,79,0.00,,,0.00,meteohub,2013-11-25 22:57:00,
2013-11-25 16:02:00,23.7,18.1,30.37,NW,315,5.0,14.0,79,0.00,,,0.00,meteohub,2013-11-25 23:02:00,
2013-11-25 16:07:00,23.7,18.1,30.37,NW,322,3.0,14.0,79,0.00,,,0.00,meteohub,2013-11-25 23:07:00,
2013-11-25 16:12:00,23.7,18.1,30.37,NW,325,4.0,11.0,79,0.00,,,0.00,meteohub,2013-11-25 23:12:00,
2013-11-25 16:17:00,23.7,18.0,30.38,WNW,302,5.0,13.0,78,0.00,,,0.00,meteohub,2013-11-25 23:17:00,
2013-11-25 16:22:00,23.5,18.0,30.37,NW,322,3.0,14.0,79,0.00,,,0.00,meteohub,2013-11-25 23:22:00,
2013-11-25 16:27:00,23.5,18.0,30.38,NW,321,4.0,14.0,79,0.00,,,0.00,meteohub,2013-11-25 23:27:00,
2013-11-25 16:32:00,23.2,17.6,30.38,NNW,335,0.0,10.0,79,0.00,,,0.00,meteohub,2013-11-25 23:32:00,
2013-11-25 16:37:00,22.8,17.6,30.39,NW,322,4.0,10.0,80,0.00,,,0.00,meteohub,2013-11-25 23:37:00,
2013-11-25 16:42:00,22.6,17.4,30.39,NW,306,1.0,10.0,80,0.00,,,0.00,meteohub,2013-11-25 23:42:00,
2013-11-25 16:47:00,22.5,17.2,30.39,NW,309,2.0,10.0,80,0.00,,,0.00,meteohub,2013-11-25 23:47:00,
2013-11-25 16:52:00,22.5,17.6,30.39,NW,323,3.0,11.0,81,0.00,,,0.00,meteohub,2013-11-25 23:52:00,
2013-11-25 16:57:00,21.9,17.1,30.39,NW,312,0.0,11.0,81,0.00,,,0.00,meteohub,2013-11-25 23:57:00,
2013-11-25 17:02:00,21.7,17.1,30.39,NNW,332,3.0,11.0,82,0.00,,,0.00,meteohub,2013-11-26 00:02:00,
2013-11-25 17:07:00,21.4,16.7,30.40,NW,326,3.0,5.0,82,0.00,,,0.00,meteohub,2013-11-26 00:07:00,
2013-11-25 17:12:00,21.2,16.9,30.40,NW,311,3.0,6.0,83,0.00,,,0.00,meteohub,2013-11-26 00:12:00,
2013-11-25 17:17:00,21.0,16.9,30.40,NW,326,4.0,13.0,84,0.00,,,0.00,meteohub,2013-11-26 00:17:00,
2013-11-25 17:22:00,20.8,16.7,30.40,NNW,329,3.0,13.0,84,0.00,,,0.00,meteohub,2013-11-26 00:22:00,
2013-11-25 17:27:00,20.7,16.5,30.41,WNW,300,3.0,13.0,84,0.00,,,0.00,meteohub,2013-11-26 00:27:00,
2013-11-25 17:32:00,20.7,16.5,30.41,NNW,330,6.0,11.0,84,0.00,,,0.00,meteohub,2013-11-26 00:32:00,
2013-11-25 17:38:00,20.5,16.7,30.42,North,349,3.0,11.0,85,0.00,,,0.00,meteohub,2013-11-26 00:38:00,
2013-11-25 17:43:00,20.3,16.5,30.42,NNW,337,3.0,11.0,85,0.00,,,0.00,meteohub,2013-11-26 00:43:00,
2013-11-25 17:48:00,20.1,16.3,30.42,NNW,329,5.0,12.0,85,0.00,,,0.00,meteohub,2013-11-26 00:48:00,
2013-11-25 17:53:00,19.9,16.2,30.42,NNW,328,1.0,12.0,85,0.00,,,0.00,meteohub,2013-11-26 00:53:00,
2013-11-25 17:58:00,19.8,16.0,30.42,NW,319,2.0,12.0,85,0.00,,,0.00,meteohub,2013-11-26 00:58:00,
2013-11-25 18:03:00,19.6,15.8,30.43,NW,319,4.0,8.0,85,0.00,,,0.00,meteohub,2013-11-26 01:03:00,
2013-11-25 18:09:00,19.4,16.0,30.43,NW,312,2.0,8.0,86,0.00,,,0.00,meteohub,2013-11-26 01:09:00,
2013-11-25 18:14:00,19.2,15.8,30.43,NW,326,8.0,8.0,86,0.00,,,0.00,meteohub,2013-11-26 01:14:00,
2013-11-25 18:19:00,19.2,15.8,30.43,NW,321,5.0,9.0,86,0.00,,,0.00,meteohub,2013-11-26 01:19:00,
2013-11-25 18:24:00,19.4,16.0,30.43,NNW,342,2.0,9.0,86,0.00,,,0.00,meteohub,2013-11-26 01:24:00,
2013-11-25 18:29:00,19.0,15.6,30.44,NW,319,4.0,9.0,86,0.00,,,0.00,meteohub,2013-11-26 01:29:00,
2013-11-25 18:34:00,19.0,15.3,30.44,NW,325,2.0,6.0,85,0.00,,,0.00,meteohub,2013-11-26 01:34:00,
2013-11-25 18:40:00,19.0,15.3,30.44,NW,326,0.0,10.0,85,0.00,,,0.00,meteohub,2013-11-26 01:40:00,
2013-11-25 18:45:00,19.0,15.3,30.44,NW,318,7.0,10.0,85,0.00,,,0.00,meteohub,2013-11-26 01:45:00,
2013-11-25 18:50:00,19.0,15.3,30.44,NNW,329,1.0,8.0,85,0.00,,,0.00,meteohub,2013-11-26 01:50:00,
2013-11-25 18:55:00,19.0,15.6,30.45,NW,324,0.0,9.0,86,0.00,,,0.00,meteohub,2013-11-26 01:55:00,
2013-11-25 19:00:00,18.9,15.4,30.45,NW,311,0.0,9.0,86,0.00,,,0.00,meteohub,2013-11-26 02:00:00,
2013-11-25 19:05:00,18.7,15.3,30.45,NW,312,0.0,3.0,86,0.00,,,0.00,meteohub,2013-11-26 02:05:00,
2013-11-25 19:10:00,18.9,15.4,30.45,NW,325,0.0,1.0,86,0.00,,,0.00,meteohub,2013-11-26 02:10:00,
2013-11-25 19:16:00,18.7,15.3,30.45,NNW,328,0.0,1.0,86,0.00,,,0.00,meteohub,2013-11-26 02:16:00,
2013-11-25 19:21:00,18.7,15.3,30.45,NNW,347,0.0,1.0,86,0.00,,,0.00,meteohub,2013-11-26 02:21:00,
2013-11-25 19:26:00,18.9,15.4,30.45,NNW,328,1.0,4.0,86,0.00,,,0.00,meteohub,2013-11-26 02:26:00,
2013-11-25 19:31:00,18.9,15.4,30.45,NW,311,3.0,5.0,86,0.00,,,0.00,meteohub,2013-11-26 02:31:00,
2013-11-25 19:36:00,19.0,15.6,30.45,NW,322,1.0,5.0,86,0.00,,,0.00,meteohub,2013-11-26 02:36:00,
2013-11-25 19:41:00,19.2,15.4,30.45,NNW,332,0.0,6.0,85,0.00,,,0.00,meteohub,2013-11-26 02:41:00,
2013-11-25 19:47:00,19.2,15.4,30.45,NNW,333,0.0,6.0,85,0.00,,,0.00,meteohub,2013-11-26 02:47:00,
2013-11-25 19:52:00,19.0,15.3,30.45,NNW,336,0.0,6.0,85,0.00,,,0.00,meteohub,2013-11-26 02:52:00,
2013-11-25 19:57:00,18.9,15.1,30.45,NNW,330,0.0,3.0,85,0.00,,,0.00,meteohub,2013-11-26 02:57:00,
2013-11-25 20:02:00,18.7,14.9,30.45,NW,310,0.0,3.0,85,0.00,,,0.00,meteohub,2013-11-26 03:02:00,
2013-11-25 20:07:00,18.9,15.1,30.46,NW,319,0.0,0.0,85,0.00,,,0.00,meteohub,2013-11-26 03:07:00,
2013-11-25 20:13:00,18.5,14.5,30.46,NW,319,0.0,0.0,84,0.00,,,0.00,meteohub,2013-11-26 03:13:00,
2013-11-25 20:18:00,18.3,14.9,30.46,NNW,336,0.0,0.0,86,0.00,,,0.00,meteohub,2013-11-26 03:18:00,
2013-11-25 20:23:00,18.7,15.3,30.46,NW,305,0.0,1.0,86,0.00,,,0.00,meteohub,2013-11-26 03:23:00,
2013-11-25 20:28:00,18.9,15.1,30.46,NW,309,0.0,1.0,85,0.00,,,0.00,meteohub,2013-11-26 03:28:00,
2013-11-25 20:33:00,18.9,14.9,30.46,NW,322,0.0,1.0,84,0.00,,,0.00,meteohub,2013-11-26 03:33:00,
2013-11-25 20:38:00,19.2,14.9,30.47,NNW,336,0.0,1.0,83,0.00,,,0.00,meteohub,2013-11-26 03:38:00,
2013-11-25 20:43:00,19.2,14.7,30.47,NNW,336,0.0,0.0,82,0.00,,,0.00,meteohub,2013-11-26 03:43:00,
2013-11-25 20:49:00,18.9,14.4,30.47,NNW,336,0.0,0.0,82,0.00,,,0.00,meteohub,2013-11-26 03:49:00,
2013-11-25 20:54:00,18.7,14.2,30.47,NNW,336,0.0,0.0,82,0.00,,,0.00,meteohub,2013-11-26 03:54:00,
2013-11-25 20:59:00,18.1,13.8,30.47,NNW,338,0.0,0.0,83,0.00,,,0.00,meteohub,2013-11-26 03:59:00,
2013-11-25 21:04:00,17.8,13.8,30.47,ESE,106,0.0,0.0,84,0.00,,,0.00,meteohub,2013-11-26 04:04:00,
2013-11-25 21:09:00,17.6,13.6,30.47,ESE,110,0.0,0.0,84,0.00,,,0.00,meteohub,2013-11-26 04:09:00,
2013-11-25 21:14:00,17.8,13.8,30.47,SE,126,0.0,0.0,84,0.00,,,0.00,meteohub,2013-11-26 04:14:00,
2013-11-25 21:20:00,17.2,13.8,30.47,SE,128,0.0,0.0,86,0.00,,,0.00,meteohub,2013-11-26 04:20:00,
2013-11-25 21:25:00,17.4,14.0,30.47,SE,129,0.0,0.0,86,0.00,,,0.00,meteohub,2013-11-26 04:25:00,
2013-11-25 21:30:00,17.4,14.0,30.47,SE,129,0.0,0.0,86,0.00,,,0.00,meteohub,2013-11-26 04:30:00,
2013-11-25 21:35:00,17.4,14.0,30.47,SE,128,0.0,0.0,86,0.00,,,0.00,meteohub,2013-11-26 04:35:00,
2013-11-25 21:40:00,17.4,14.0,30.48,SE,125,0.0,0.0,86,0.00,,,0.00,meteohub,2013-11-26 04:40:00,
2013-11-25 21:45:00,17.8,14.4,30.48,SE,126,0.0,0.0,86,0.00,,,0.00,meteohub,2013-11-26 04:45:00,
2013-11-25 21:51:00,18.3,14.5,30.48,ESE,121,0.0,0.0,85,0.00,,,0.00,meteohub,2013-11-26 04:51:00,
2013-11-25 21:56:00,18.9,14.5,30.48,ESE,123,0.0,0.0,83,0.00,,,0.00,meteohub,2013-11-26 04:56:00,
2013-11-25 22:01:00,18.9,14.5,30.48,ESE,122,0.0,0.0,83,0.00,,,0.00,meteohub,2013-11-26 05:01:00,
2013-11-25 22:02:00,19.0,14.7,30.48,ESE,122,0.0,0.0,83,0.00,,,0.00,meteohub,2013-11-26 05:02:00,
2013-11-25 22:04:00,19.0,14.7,30.48,ESE,123,0.0,0.0,83,0.00,,,0.00,meteohub,2013-11-26 05:04:00,
2013-11-25 22:05:00,19.0,14.7,30.48,ESE,123,0.0,0.0,83,0.00,,,0.00,meteohub,2013-11-26 05:05:00,
2013-11-25 22:10:00,19.0,14.5,30.48,SE,129,0.0,0.0,82,0.00,,,0.00,meteohub,2013-11-26 05:10:00,
2013-11-25 22:15:00,18.9,14.4,30.48,SE,129,0.0,0.0,82,0.00,,,0.00,meteohub,2013-11-26 05:15:00,
2013-11-25 22:20:00,19.0,14.7,30.48,SE,129,0.0,0.0,83,0.00,,,0.00,meteohub,2013-11-26 05:20:00,
2013-11-25 22:26:00,19.0,14.5,30.49,SE,130,0.0,0.0,82,0.00,,,0.00,meteohub,2013-11-26 05:26:00,
2013-11-25 22:31:00,18.7,14.4,30.49,SE,130,0.0,0.0,83,0.00,,,0.00,meteohub,2013-11-26 05:31:00,
2013-11-25 22:36:00,18.7,14.4,30.48,SE,129,0.0,0.0,83,0.00,,,0.00,meteohub,2013-11-26 05:36:00,
2013-11-25 22:41:00,18.7,14.4,30.49,SE,130,0.0,0.0,83,0.00,,,0.00,meteohub,2013-11-26 05:41:00,
2013-11-25 22:46:00,18.9,14.5,30.48,SE,129,0.0,0.0,83,0.00,,,0.00,meteohub,2013-11-26 05:46:00,
2013-11-25 22:51:00,18.9,14.4,30.48,SE,129,0.0,0.0,82,0.00,,,0.00,meteohub,2013-11-26 05:51:00,
2013-11-25 22:57:00,19.0,14.5,30.48,SSE,154,0.0,0.0,82,0.00,,,0.00,meteohub,2013-11-26 05:57:00,
2013-11-25 23:02:00,19.0,13.8,30.48,SSE,153,0.0,0.0,80,0.00,,,0.00,meteohub,2013-11-26 06:02:00,
2013-11-25 23:07:00,19.0,13.8,30.48,SSE,154,0.0,0.0,80,0.00,,,0.00,meteohub,2013-11-26 06:07:00,
2013-11-25 23:12:00,18.7,13.5,30.48,SSE,153,0.0,0.0,80,0.00,,,0.00,meteohub,2013-11-26 06:12:00,
2013-11-25 23:17:00,19.2,14.0,30.48,SSE,153,0.0,0.0,80,0.00,,,0.00,meteohub,2013-11-26 06:17:00,
2013-11-25 23:22:00,19.6,14.2,30.48,SSE,152,0.0,0.0,79,0.00,,,0.00,meteohub,2013-11-26 06:22:00,
2013-11-25 23:27:00,19.8,13.6,30.48,South,169,0.0,0.0,77,0.00,,,0.00,meteohub,2013-11-26 06:27:00,
2013-11-25 23:32:00,19.9,13.8,30.48,South,169,0.0,0.0,77,0.00,,,0.00,meteohub,2013-11-26 06:32:00,
2013-11-25 23:37:00,19.8,13.6,30.48,South,169,0.0,0.0,77,0.00,,,0.00,meteohub,2013-11-26 06:37:00,
2013-11-25 23:42:00,19.4,13.5,30.49,South,169,0.0,0.0,77,0.00,,,0.00,meteohub,2013-11-26 06:42:00,
2013-11-25 23:47:00,19.2,13.5,30.49,South,169,0.0,0.0,78,0.00,,,0.00,meteohub,2013-11-26 06:47:00,
2013-11-25 23:52:00,19.0,13.3,30.49,South,169,0.0,0.0,78,0.00,,,0.00,meteohub,2013-11-26 06:52:00,
2013-11-25 23:57:00,18.9,13.5,30.49,South,169,0.0,0.0,79,0.00,,,0.00,meteohub,2013-11-26 06:57:00,